Weather History for Texarkana, AR

Change the Weather History Date:

Monday, February 4, 2013

  Actual Average Record
Temperature  
Mean Temperature 52 °F 46 °F  
Max Temperature 56 °F 56 °F 78 °F (1927)
Min Temperature 47 °F 36 °F 10 °F (1996)
Degree Days  
Heating Degree Days 13 19  
Month to date heating degree days 68 78  
Since 1 July heating degree days 1536 1800  
Cooling Degree Days 0 0  
Month to date cooling degree days 0 0  
Year to date cooling degree days 4 1  
Growing Degree Days 2 (Base 50)    
Moisture  
Dew Point 45 °F    
Average Humidity 69    
Maximum Humidity 100    
Minimum Humidity 38    
Precipitation  
Precipitation 0.04 in 0.13 in 2.20 in (1955)
Month to date precipitation 0.04 0.49  
Year to date precipitation 3.71 3.89  
Snow  
Snow 0.00 in - - ()
Month to date snowfall 0.0  
Since 1 July snowfall 2.1  
Snow Depth 0.00 in    
Sea Level Pressure  
Sea Level Pressure 29.95 in    
Wind  
Wind Speed 6 mph (SE)    
Max Wind Speed 14 mph    
Max Gust Speed 17 mph    
Visibility 9 miles    
Events Rain    
T = Trace of Precipitation, MM = Missing Value Source: NWS Daily Summary

Daily Weather History Graph

Daily Weather History Graph

Search for Another Location

Airport:

Trip Planner

Search our weather history database for the weather conditions in past years. The results will help you decide how hot, cold, wet, or windy it might be!

Date:

Astronomy

Feb. 04, 2013 Rise Set
Actual Time 7:09 AM CST 5:50 PM CST
Civil Twilight 6:43 AM CST 6:16 PM CST
Nautical Twilight 6:14 AM CST 6:46 PM CST
Astronomical Twilight 5:44 AM CST 7:15 PM CST
Moon 1:42 AM CST (2/4) 12:19 PM CST (2/4)
Length of Visible Light 11h 32m
Length of Day
10h 41m
Last Quarter, 37% of the Moon is Illuminated
Feb 4
Last Quarter
Feb 10
New
Feb 17
First Quarter
Feb 25
Full
Mar 4
Last Quarter

Hourly Weather History & Observations

Time (CST) Temp. Dew Point Humidity Pressure Visibility Wind Dir Wind Speed Gust Speed Precip Events Conditions
12:53 AM 52.0 °F 28.9 °F 41% 30.05 in 10.0 mi SE 8.1 mph - N/A   Clear
1:53 AM 51.1 °F 30.0 °F 44% 30.02 in 10.0 mi SE 9.2 mph - N/A   Clear
2:53 AM 51.1 °F 30.9 °F 46% 30.00 in 10.0 mi SSE 12.7 mph - N/A   Clear
4:53 AM 51.1 °F 32.0 °F 48% 30.00 in 10.0 mi South 8.1 mph - N/A   Mostly Cloudy
5:53 AM 50.0 °F 33.1 °F 52% 29.98 in 10.0 mi SSE 6.9 mph - N/A   Mostly Cloudy
6:53 AM 51.1 °F 33.1 °F 50% 29.97 in 10.0 mi South 10.4 mph - N/A   Clear
7:53 AM 51.1 °F 35.1 °F 54% 30.01 in 10.0 mi Calm Calm - 0.00 in Rain Light Rain
8:53 AM 48.0 °F 42.1 °F 80% 30.01 in 7.0 mi South 3.5 mph - 0.01 in Rain Light Rain
9:53 AM 48.0 °F 43.0 °F 83% 30.02 in 8.0 mi South 5.8 mph - 0.01 in Rain Light Rain
10:53 AM 48.0 °F 44.1 °F 86% 29.99 in 10.0 mi SSE 9.2 mph - 0.01 in Rain Light Rain
11:31 AM 48.2 °F 44.6 °F 87% 29.97 in 10.0 mi SSE 9.2 mph - 0.00 in Rain Light Rain
11:53 AM 50.0 °F 46.0 °F 86% 29.96 in 10.0 mi SSE 8.1 mph - 0.00 in Rain Light Rain
12:04 PM 50.0 °F 46.4 °F 87% 29.96 in 9.0 mi SSE 6.9 mph - 0.01 in Rain Light Rain
12:53 PM 52.0 °F 48.0 °F 86% 29.94 in 10.0 mi South 6.9 mph - 0.01 in   Mostly Cloudy
1:43 PM 51.8 °F 48.2 °F 88% 29.91 in 10.0 mi SSE 8.1 mph - N/A   Overcast
1:53 PM 51.1 °F 48.0 °F 89% 29.90 in 8.0 mi SSE 9.2 mph - 0.00 in Rain Light Rain
2:53 PM 54.0 °F 48.9 °F 83% 29.89 in 10.0 mi South 5.8 mph - 0.00 in   Overcast
3:53 PM 55.0 °F 50.0 °F 83% 29.88 in 10.0 mi South 4.6 mph - N/A   Overcast
4:53 PM 55.0 °F 50.0 °F 83% 29.87 in 10.0 mi WSW 3.5 mph - N/A   Overcast
5:53 PM 54.0 °F 52.0 °F 93% 29.88 in 10.0 mi Calm Calm - 0.00 in   Overcast
6:53 PM 54.0 °F 51.1 °F 90% 29.90 in 10.0 mi Calm Calm - N/A   Overcast
7:53 PM 54.0 °F 52.0 °F 93% 29.92 in 10.0 mi Calm Calm - N/A   Overcast
8:24 PM 53.6 °F 51.8 °F 94% 29.92 in 10.0 mi SE 5.8 mph - N/A   Overcast
8:53 PM 53.1 °F 51.1 °F 93% 29.92 in 10.0 mi NE 3.5 mph - N/A   Overcast
9:01 PM 51.8 °F 51.8 °F 100% 29.93 in 10.0 mi NE 4.6 mph - N/A   Mostly Cloudy
9:12 PM 51.8 °F 51.8 °F 100% 29.93 in 10.0 mi NNE 4.6 mph - N/A   Mostly Cloudy
9:44 PM 51.8 °F 51.8 °F 100% 29.94 in 8.0 mi NE 4.6 mph - N/A   Overcast
9:53 PM 52.0 °F 51.1 °F 97% 29.94 in 7.0 mi NE 4.6 mph - N/A   Overcast
10:53 PM 52.0 °F 51.1 °F 97% 29.94 in 6.0 mi NE 3.5 mph - N/A   Overcast
11:53 PM 52.0 °F 50.0 °F 93% 29.94 in 6.0 mi NNE 4.6 mph - N/A   Overcast